Location: Dompnac
(44.5644°N, 4.1026°E)
Time: 13:34:31
(UTC+00:00)

Cosmos 2026 Rocket - Pass Details

Date: 23 January 2021
Orbit: 940 x 1000 km, 82.9° (Epoch: 28 February)

Event Time Altitude Azimuth Distance (km) Brightness Sun altitude
Rises 20:45:41 0° 252° (WSW) 3,623 7.6 -43.3°
Reaches altitude 10° 20:50:57 10° 291° (WNW) 2,701 6.9 -44.2°
Maximum altitude 20:52:07 11° 302° (WNW) 2,669 6.8 -44.4°
Drops below altitude 10° 20:53:17 10° 313° (NW) 2,712 6.8 -44.6°
Sets 20:58:40 0° 351° (N) 3,685 7.3 -45.5°
